{"data":{"norad_id":48284,"epoch":"2026-05-25T02:46:45.673824Z","epoch_age_seconds":60991,"freshness":"FRESH","line1":"1 48284U 21036J   26145.11580641 -.00001421  00000+0 -34024-4 0  9998","line2":"2 48284  53.1609  80.4237 0001271  78.4475 281.6669 15.31698139280107","mean_motion":15.31698139,"eccentricity":0.0001271,"inclination_deg":53.1609,"raan_deg":80.4237,"arg_perigee_deg":78.4475,"mean_anomaly_deg":281.6669,"bstar":-3.4024e-5,"rev_number":28010,"period_min":94.0133021863,"perigee_km":469.87504980424,"apogee_km":471.61603574661,"semimajor_km":6848.8825427754,"source":"CELESTRAK","updated_at":"2026-05-25T13:38:16.673488Z"}}